This demonstration page uses our WeatherBlox Daily Observations layout. Learn more.

Left ArrowRight Arrow

39.01783, -85.05884

Hourly Observations for October 10, 2020

Temp ( °F °C ) Dew Point ( °F °C ) Humidity (%) Winds ( mph kmh ) Pressure ( in mb ) Visibility ( mi km ) Precip ( " mm )
12:52 am 00:52 Mostly Cloudy 66 18.9 59 15 78 78 SSW 6 9 29.99 1016 10 16.0934 0 0
1:52 am 01:52 Cloudy 63 17.2 58 14.4 84 84 SSW 6 9 29.98 1015 10 16.0934 0 0
2:52 am 02:52 Cloudy 62 16.7 58 14.4 86 86 S 8 13 29.98 1015 10 16.0934 0 0
3:52 am 03:52 Cloudy 63 17.2 59 15 87 87 S 7 11 29.97 1015 10 16.0934 0 0
4:52 am 04:52 Mostly Cloudy 64 17.8 59 15 84 84 S 9 15 29.97 1015 10 16.0934 0 0
5:52 am 05:52 Cloudy 65 18.3 59 15 81 81 SSW 10 17 29.98 1015 10 16.0934 0 0
6:52 am 06:52 Mostly Cloudy 65 18.3 59 15 81 81 S 7 11 29.99 1016 10 16.0934 0 0
7:52 am 07:52 Cloudy 65 18.3 59 15 81 81 S 9 15 29.99 1016 10 16.0934 0 0
8:52 am 08:52 Cloudy 66 18.9 59 15 78 78 S 10 17 30 1016 10 16.0934 0 0
9:52 am 09:52 Cloudy 67 19.4 60 15.6 79 79 SSW 10 17 30.01 1016 10 16.0934 0 0
9:59 am 09:59 Cloudy 67 19.4 60 15.6 79 79 SSW 9 15 30.01 1016 10 16.0934 0 0
10:52 am 10:52 Cloudy 67 19.4 60 15.6 79 79 SSW 9 15 30 1016 10 16.0934 0 0
11:52 am 11:52 Cloudy 69 20.6 61 16.1 76 76 S 9 15 29.99 1016 10 16.0934 0 0
12:52 pm 12:52 Cloudy 70 21.1 61 16.1 73 73 S 8 13 29.98 1015 10 16.0934 0 0
1:52 pm 13:52 Cloudy 71 21.7 62 16.7 73 73 SW 9 15 29.97 1015 10 16.0934 0 0
2:52 pm 14:52 Cloudy 71 21.7 62 16.7 73 73 SSW 8 13 29.96 1014 10 16.0934 0.001 0.001
3:52 pm 15:52 Cloudy 72 22.2 62 16.7 71 71 SSW 7 11 29.95 1014 10 16.0934 0 0
4:09 pm 16:09 Cloudy 72 22.2 62 16.7 71 71 SSW 5 7 29.94 1014 10 16.0934 0 0
4:52 pm 16:52 Cloudy 72 22.2 63 17.2 73 73 SSW 3 6 29.94 1014 10 16.0934 0 0
5:52 pm 17:52 Cloudy 72 22.2 63 17.2 73 73 S 9 15 29.93 1013 10 16.0934 0 0
6:52 pm 18:52 Cloudy 71 21.7 63 17.2 76 76 S 9 15 29.93 1014 10 16.0934 0 0
7:52 pm 19:52 Cloudy 70 21.1 63 17.2 79 79 SE 9 15 29.92 1013 10 16.0934 0 0
8:05 pm 20:05 Cloudy 69 20.6 62 16.7 78 78 ESE 7 11 29.93 1013 10 16.0934 0 0
8:52 pm 20:52 Cloudy 68 20 62 16.7 81 81 ENE 6 9 29.92 1013 10 16.0934 0 0
9:52 pm 21:52 Cloudy 66 18.9 62 16.7 87 87 S 7 11 29.95 1014 10 16.0934 0 0
10:52 pm 22:52 Cloudy 66 18.9 62 16.7 87 87 SE 6 9 29.93 1014 10 16.0934 0 0
11:52 pm 23:52 Cloudy 65 18.3 62 16.7 90 90 ESE 5 7 29.93 1013 10 16.0934 0 0

Powered by AerisWeather